Tracking 28790 objects as of 19-Apr-2024
HD Live streaming from Space Station
objects crossing your sky now

FENGYUN 1C DEB

Track FENGYUN 1C DEB now!
10-day predictions


NORAD ID: 33689
Int'l Code: 1999-025DGA
Perigee: 738.6 km
Apogee: 819.3 km
Inclination: 99.5 °
Period: 100.3 minutes
Semi major axis: 7149 km
RCS: 0.0143 m2 (small)
Launch date: May 10, 1999
Source: People's Republic of China (PRC)
Launch site: Taiyaun Space Center, China (TSC)

Note: This is SATELLITE DEBRIS
Your satellite tracking list
Your tracking list is empty




NASA's NSSDC Master Catalog

Two Line Element Set (TLE):
1 33689U 99025DGA 24103.02482962  .00003407  00000-0  11690-2 0  9990
2 33689  99.5323  33.3730 0056407 122.9021 297.0344 14.35978527607485
Source of the keplerian elements: AFSPC